GW4091 Weather Reports


Display with metric or nautical units.
time (UTC)temp
F
wind
direction
speed
MPH
gust
MPH
rain 1hr
in
rain 24hr
in
rain mn
in
humidity
%
barometer
mb
20260506073010 61 163 0.0 2.0 0.00 0.01 0.00 86 1015.8
20260506071528 61 163 0.0 0.0 0.00 0.01 0.00 86 1015.9
20260506061528 61 163 0.0 2.0 0.00 0.01 0.00 85 1016.3
20260506044526 63 163 0.0 0.0 0.00 0.01 0.00 78 1016.9
20260506043026 63 163 0.0 0.0 0.00 0.01 0.00 77 1017.2
20260506041508 63 163 0.0 0.0 0.00 0.01 0.00 77 1017.4
20260506040041 64 163 0.0 0.0 0.00 0.01 0.00 76 1017.0
20260506034516 64 163 0.0 0.0 0.00 0.01 0.01 76 1017.0
20260506033027 64 163 0.0 0.0 0.00 0.01 0.01 76 1016.8
20260506031526 64 163 0.0 2.0 0.00 0.01 0.01 75 1017.0
20260506030027 64 163 0.0 2.0 0.00 0.01 0.01 75 1017.0
20260506024527 65 163 0.0 2.0 0.00 0.01 0.01 75 1017.0
20260506023024 65 163 0.0 2.0 0.00 0.01 0.01 74 1017.2
20260506021543 66 163 0.0 2.0 0.00 0.01 0.01 73 1017.3
20260506020028 66 163 1.0 2.0 0.00 0.01 0.01 72 1017.2
20260506014530 67 163 0.0 2.0 0.00 0.01 0.01 71 1017.1
20260506013027 67 163 0.0 2.0 0.00 0.01 0.01 69 1016.7
20260506011531 68 163 0.0 2.0 0.00 0.01 0.01 68 1016.7
20260506010044 68 157 0.0 2.0 0.00 0.01 0.01 67 1017.1
20260506004528 69 101 0.0 3.0 0.00 0.01 0.01 65 1016.4
20260506001528 70 180 1.0 3.0 0.00 0.01 0.01 61 1016.6
20260506000028 70 165 3.0 6.0 0.00 0.01 0.01 59 1016.7
20260505234512 71 177 3.0 9.0 0.00 0.01 0.01 59 1016.7
20260505233013 72 144 2.0 8.0 0.00 0.01 0.01 60 1016.5
20260505231532 72 201 4.0 11.0 0.00 0.01 0.01 58 1016.4
20260505230005 73 173 2.0 9.0 0.00 0.01 0.01 58 1016.5
20260505224515 73 161 3.0 8.0 0.00 0.01 0.01 58 1016.6
20260505223030 74 148 4.0 11.0 0.00 0.01 0.01 58 1016.6
20260505221516 74 167 2.0 10.0 0.00 0.01 0.01 57 1016.6
20260505220031 75 217 2.0 11.0 0.00 0.01 0.01 56 1016.6
20260505214506 75 138 4.0 7.0 0.00 0.01 0.01 55 1016.7
20260505213028 75 138 4.0 10.0 0.00 0.01 0.01 54 1016.8
20260505211539 75 181 5.0 12.0 0.00 0.01 0.01 52 1016.9
20260505210027 76 142 4.0 11.0 0.00 0.01 0.01 52 1016.7
20260505204525 77 154 1.0 9.0 0.00 0.01 0.01 51 1016.6
20260505203007 76 179 5.0 10.0 0.00 0.01 0.01 50 1016.6
20260505201528 76 180 5.0 13.0 0.00 0.01 0.01 51 1017.0
20260505200029 76 159 4.0 10.0 0.00 0.01 0.01 50 1017.0
20260505194524 77 160 3.0 8.0 0.00 0.01 0.01 49 1017.2
20260505193030 76 157 3.0 10.0 0.00 0.01 0.01 50 1017.6
20260505191535 76 127 2.0 9.0 0.00 0.01 0.01 51 1017.9
20260505190031 76 178 5.0 11.0 0.00 0.01 0.01 49 1018.0
20260505184542 76 177 4.0 9.0 0.00 0.01 0.01 53 1017.9
20260505183030 76 180 4.0 10.0 0.00 0.01 0.01 53 1017.8
20260505181530 77 175 4.0 8.0 0.00 0.01 0.01 51 1017.6
20260505180015 76 167 4.0 12.0 0.00 0.01 0.01 52 1017.7
20260505174519 76 175 3.0 10.0 0.00 0.01 0.01 51 1017.8
20260505173029 77 168 5.0 13.0 0.00 0.01 0.01 51 1017.6
20260505171528 76 167 3.0 8.0 0.00 0.01 0.01 50 1018.0
20260505170035 75 98 1.0 11.0 0.00 0.01 0.01 51 1018.0
20260505164517 76 148 3.0 9.0 0.00 0.01 0.01 50 1018.3
20260505163033 75 157 5.0 10.0 0.00 0.01 0.01 50 1018.4
20260505161530 75 154 4.0 9.0 0.00 0.01 0.01 51 1018.6
20260505153021 74 184 5.0 8.0 0.00 0.01 0.01 54 1018.7
20260505151532 74 182 3.0 8.0 0.00 0.01 0.01 57 1018.7
20260505124534 66 161 1.0 2.0 0.00 0.01 0.01 77 1018.3
20260505123029 64 161 0.0 0.0 0.00 0.01 0.01 79 1018.2
20260505121531 63 161 0.0 0.0 0.00 0.01 0.01 84 1018.3
20260505120029 60 161 0.0 0.0 0.00 0.01 0.01 90 1018.2
20260505114528 56 161 0.0 0.0 0.00 0.01 0.01 92 1018.0
20260505113040 56 161 0.0 0.0 0.00 0.01 0.01 91 1017.9
20260505111542 55 161 0.0 0.0 0.00 0.01 0.01 91 1017.7
20260505101523 55 161 0.0 0.0 0.00 0.01 0.01 91 1017.1
20260505100018 55 161 0.0 0.0 0.01 0.01 0.01 91 1017.0
20260505094527 56 161 0.0 0.0 0.01 0.01 0.01 90 1017.0
20260505093033 56 161 0.0 0.0 0.01 0.01 0.01 90 1016.9
20260505091511 56 161 0.0 0.0 0.01 0.01 0.01 90 1016.8
20260505090021 56 161 0.0 0.0 0.00 0.00 0.00 90 1016.7
20260505084532 56 161 0.0 0.0 0.00 0.00 0.00 89 1016.4
20260505083005 56 161 0.0 0.0 0.00 0.00 0.00 89 1016.4
20260505081508 56 161 0.0 0.0 0.00 0.00 0.00 89 1016.3